Hourly Data Report for October 29, 2006

ALERT CLIMATE
NUNAVUT

82°30'00.000" N
62°20'00.000" W
65.40 m
2400305
71355
ZLT

Download Data

Hourly Data (October 2006)
Hourly Data Report for October 29, 2006
TIME
LST
Temp Definition
°C
Dew Point Definition
°C
Rel Hum Definition
%
Precip. Amount Definition
mm

Wind Dir Definition
10's deg

Wind Spd Definition
km/h
Visibility Definition
km
Stn Press Definition
kPa
Hmdx Definition


Wind Chill Definition


Weather Definition


00:00 -6.9 -10.2 77   26 20   101.08   -14 LegendNANA
01:00 -7.1 -9.7 82   26 13   101.11   -13 LegendNANA
02:00 -8.3 -11.4 78   31 6   101.14   -12 LegendNANA
03:00 -8.7 -11.5 80   32 6   101.18   -12 LegendNANA
04:00 -9.4 -10.8 90   26 6   101.24   -13 LegendNANA
05:00 -8.6 -10.4 87   32 4   101.28   -11 LegendNANA
06:00 -8.4 -10.0 88   25 2   101.31   -9 LegendNANA
07:00 -8.9 -10.2 90   2 2   101.34   -10 LegendNANA
08:00 -8.8 -9.8 92     0   101.36     LegendNANA
09:00 -9.7 -10.2 96   8 2   101.41   -11 LegendNANA
10:00 -11.2 -12.1 93   26 9   101.41   -16 LegendNANA
11:00 -10.7 -11.9 91   26 2   101.43   -12 LegendNANA
12:00 -9.4 -11.6 84   25 20   101.43   -17 LegendNANA
13:00 -12.3 -14.6 83   27 17   101.45   -20 LegendNANA
14:00 -10.3 -12.8 82   28 20   101.47   -18 LegendNANA
15:00 -10.2 -12.5 83   27 17   101.49   -17 LegendNANA
16:00 -9.4 -12.3 79   26 13   101.50   -15 LegendNANA
17:00 -7.1 -10.0 80   26 20   101.47   -14 LegendNANA
18:00 -7.4 -10.4 79   26 22   101.48   -15 LegendNANA
19:00 -6.8 -10.1 77   26 20   101.50   -14 LegendNANA
20:00 -6.5 -9.6 79   25 22   101.50   -14 LegendNANA
21:00 -6.1 -9.0 80   27 19   101.52   -13 LegendNANA
22:00 -6.6 -9.4 80   27 24   101.57   -14 LegendNANA
23:00 -8.3 -9.8 89   35 9   101.64   -13 LegendNANA

Notes on Data Quality.

Legend

  • E = Estimated
  • M = Missing
  • NA = Not Available*
  • [empty] = Indicates an unobserved value
Date modified: